Location: Columbia
(38.9520°N, 92.3340°W)
Time: 01:14:09
(UTC-06:00)

SJ-11-01 - Visible Passes

Search period start: 21 February 2018 00:00
Search period end: 03 March 2018 00:00
Orbit: 685 x 700 km, 98.1° (Epoch: 20 February)

Date Brightness Start Highest point End Pass type
(mag) Time Alt. Az. Time Alt. Az. Time Alt. Az.
21 Feb 5.4 19:49:23 30° NNE 19:49:23 30° NNE 19:52:03 10° N visible
21 Feb 7.3 21:28:04 12° NW 21:28:04 12° NW 21:28:34 10° NW visible
22 Feb 6.2 18:50:52 12° ENE 18:50:52 12° ENE 18:52:12 10° NE visible
22 Feb 5.7 20:29:33 32° NNW 20:29:33 32° NNW 20:32:06 10° NNW visible
23 Feb 5.5 19:31:02 26° NE 19:31:02 26° NE 19:33:56 10° N visible
23 Feb 6.8 21:09:42 19° NW 21:09:42 19° NW 21:11:24 10° NW visible
24 Feb 5.1 20:11:11 40° N 20:11:11 40° N 20:14:17 10° N visible
25 Feb 5.7 19:12:40 19° ENE 19:12:40 19° ENE 19:15:34 10° NNE visible
25 Feb 6.1 20:51:21 28° NW 20:51:21 28° NW 20:53:57 10° NNW visible
26 Feb 4.9 19:52:51 40° NE 19:52:51 40° NE 19:56:19 10° N visible
26 Feb 7.2 21:31:31 13° WNW 21:31:31 13° WNW 21:32:32 10° NW visible
27 Feb 6.0 18:54:20 13° ENE 18:54:35 13° ENE 18:56:47 10° NE visible
27 Feb 5.3 20:33:00 43° NW 20:33:00 43° NW 20:36:17 10° NNW visible
28 Feb 5.1 19:34:30 31° ENE 19:34:30 31° ENE 19:38:13 10° N visible
28 Feb 6.6 21:13:11 21° WNW 21:13:11 21° WNW 21:15:28 10° NW visible
01 Mar 4.6 20:14:41 57° N 20:14:41 57° N 20:18:29 10° N visible
02 Mar 5.5 19:16:10 21° ENE 19:16:21 21° ENE 19:19:55 10° NNE visible
02 Mar 5.9 20:54:51 32° WNW 20:54:51 32° WNW 20:58:04 10° NNW visible
